Location: Mana�l
(15.0115°N, 12.5022°W)
Time: 05:42:33
(UTC+00:00)

COSMOS 2428 - Pass Details

Date: 07 June 2020
Orbit: 845 x 858 km, 70.9° (Epoch: 05 July)

Event Time Altitude Azimuth Distance (km) Brightness Sun altitude
Exits shadow 03:48:51 52° 11° (NNE) 1,041 3.3 -32.0°
Drops below altitude 10° 03:53:03 10° 15° (NNE) 2,461 5.7 -31.2°
Sets 03:55:29 0° 16° (NNE) 3,396 6.6 -30.7°
